Montgomery, AL

10:26 PM CDT on September 22, 2017 (GMT -0500)
Montgomery Regional

Weather History for KMGM - September, 2013

Change the Weather History Date:

Tuesday, September 10, 2013

  Actual Average Record
Temperature  
Mean Temperature 83 °F 78 °F  
Max Temperature 93 °F 89 °F 101 °F (1980)
Min Temperature 73 °F 67 °F 52 °F (1969)
Degree Days  
Heating Degree Days 0 0  
Month to date heating degree days 0 0  
Since 1 July heating degree days 0 0  
Cooling Degree Days 18 13  
Month to date cooling degree days 172 141  
Year to date cooling degree days 1994 1930  
Growing Degree Days 33 (Base 50)    
Moisture  
Dew Point 69 °F    
Average Humidity 69    
Maximum Humidity 93    
Minimum Humidity 44    
Precipitation  
Precipitation 0.00 in 0.14 in 3.27 in (1988)
Month to date precipitation 0.10 1.40  
Year to date precipitation 43.11 38.11  
Sea Level Pressure  
Sea Level Pressure 30.12 in    
Wind  
Wind Speed 5 mph (East)    
Max Wind Speed 14 mph    
Max Gust Speed 20 mph    
Visibility 8 miles    
Events      
T = Trace of Precipitation, MM = Missing Value Source: NWS Daily Summary

Daily Weather History Graph

Daily Weather History Graph

Search for Another Location

Airport or City:

Trip Planner

Search our weather history database for the weather conditions in past years. The results will help you decide how hot, cold, wet, or windy it might be!

Date:

Astronomy

Sep. 10, 2013 Rise Set
Actual Time 6:26 AM CDT 6:57 PM CDT
Civil Twilight 6:01 AM CDT 7:22 PM CDT
Nautical Twilight 5:32 AM CDT 7:51 PM CDT
Astronomical Twilight 5:03 AM CDT 8:20 PM CDT
Moon 11:31 AM CDT (9/10) 10:21 PM CDT (9/10)
Length of Visible Light 13h 20m
Length of Day
12h 31m
Waxing Crescent, 28% of the Moon is Illuminated
Sep 10
Waxing Crescent
Sep 12
First Quarter
Sep 19
Full
Sep 26
Last Quarter
Oct 4
New

Hourly Weather History & Observations

Time (CDT) Temp. Heat Index Dew Point Humidity Pressure Visibility Wind Dir Wind Speed Gust Speed Precip Events Conditions
12:53 AM 75.9 °F - 72.0 °F 87% 30.07 in 7.0 mi SSE 3.5 mph - N/A   Partly Cloudy
1:53 AM 75.0 °F - 72.0 °F 90% 30.06 in 7.0 mi East 4.6 mph - N/A   Clear
2:53 AM 73.9 °F - 71.1 °F 91% 30.06 in 6.0 mi East 4.6 mph - N/A   Clear
3:53 AM 75.0 °F - 71.1 °F 87% 30.07 in 7.0 mi ENE 4.6 mph - N/A   Clear
4:53 AM 73.0 °F - 70.0 °F 90% 30.09 in 5.0 mi East 4.6 mph - N/A   Clear
5:53 AM 73.0 °F - 70.0 °F 90% 30.11 in 4.0 mi East 3.5 mph - N/A   Clear
6:53 AM 73.0 °F - 70.0 °F 90% 30.13 in 4.0 mi East 5.8 mph - N/A   Clear
7:53 AM 75.9 °F - 71.1 °F 85% 30.14 in 6.0 mi East 5.8 mph - N/A   Haze
8:53 AM 79.0 °F - 71.1 °F 77% 30.16 in 9.0 mi ESE 6.9 mph - N/A   Clear
9:53 AM 84.0 °F 89.0 °F 71.1 °F 65% 30.17 in 10.0 mi Variable 4.6 mph - N/A   Clear
10:53 AM 87.1 °F 91.3 °F 69.1 °F 55% 30.17 in 10.0 mi Variable 4.6 mph - N/A   Clear
11:53 AM 89.1 °F 93.7 °F 69.1 °F 52% 30.16 in 10.0 mi Variable 4.6 mph - N/A   Partly Cloudy
12:53 PM 91.0 °F 95.2 °F 68.0 °F 47% 30.15 in 10.0 mi SE 8.1 mph - N/A   Clear
1:53 PM 91.0 °F 94.3 °F 66.9 °F 45% 30.14 in 10.0 mi East 8.1 mph - N/A   Scattered Clouds
2:53 PM 91.9 °F 94.5 °F 66.0 °F 42% 30.11 in 10.0 mi ESE 9.2 mph - N/A   Clear
3:53 PM 91.0 °F 93.8 °F 66.0 °F 44% 30.09 in 10.0 mi ESE 10.4 mph - N/A   Scattered Clouds
4:53 PM 91.0 °F 93.8 °F 66.0 °F 44% 30.09 in 10.0 mi East 8.1 mph - N/A   Clear
5:53 PM 89.1 °F 91.3 °F 66.0 °F 46% 30.10 in 10.0 mi East 8.1 mph - N/A   Clear
6:53 PM 82.9 °F 85.8 °F 68.0 °F 60% 30.10 in 10.0 mi ESE 4.6 mph - N/A   Clear
7:53 PM 80.1 °F 82.7 °F 68.0 °F 67% 30.12 in 10.0 mi ESE 5.8 mph - N/A   Clear
8:53 PM 78.1 °F - 69.1 °F 74% 30.13 in 10.0 mi East 3.5 mph - N/A   Clear
9:53 PM 78.1 °F - 69.1 °F 74% 30.15 in 10.0 mi Calm Calm - N/A   Clear
10:53 PM 77.0 °F - 69.1 °F 76% 30.15 in 10.0 mi Calm Calm - N/A   Clear
11:53 PM 75.9 °F - 69.1 °F 79% 30.14 in 10.0 mi NE 3.5 mph - N/A   Clear